Home > Weather > Thusis > Past weeks

Flag for Switzerland Past Weather in Thusis, Graubünden, Switzerland — Yesterday and Last 2 Weeks

Now
74 °F

Partly sunny.


Feels Like: 77 °F
Forecast: 55 / 72 °F
Wind: 2 mph from Northwest

Location: Chur

Current Time: Aug 28, 2016 at 9:06:46 PM

Latest Report: Aug 28, 2016 at 8:00 PM


Visibility: 16 mi

Pressure: 29.98 "Hg (27.60 "Hg at 718m altitude)

Humidity: 67%

Dew Point: 63 °F

Location of ThusisLocation

Past Weather in Thusis — Graph

°F

Thusis Temperature Yesterday

Maximum temperature yesterday: 86 °F (at 5:00 PM)
Minimum temperature yesterday: 65 °F (at 6:00 AM)
Average temperature yesterday: 74 °F

High & Low Weather Summary for the Past Weeks

 TemperatureHumidityPressure
High88 °F (Aug 26, 4:00 PM)98% (Aug 17, 5:00 AM)30.43 "Hg (Aug 17, 5:00 AM)
Low52 °F (Aug 22, 8:00 AM)36% (Aug 28, 5:00 PM)29.76 "Hg (Aug 18, 3:00 PM)
Average68 °F72%30.07 "Hg
* Reported Aug 13 7:00 PM — Aug 28 7:00 PM, Thusis, Weather by CustomWeather, © 2016

Note: Actual official high and low records may vary slightly from our data, if they occured in-between our weather recording intervals... More about our weather records

Advertising

Thusis Weather History for the Previous 24 Hours

Scroll right to see more
 ConditionsComfort  
Time TempWeatherWind HumidityBarometerVisibility
7:00 PM
Sun, Aug 28
78 °FWarm.5 mph56%29.96 "HgN/A
6:00 PM81 °FWarm.8 mph48%29.95 "HgN/A
5:00 PM86 °FScattered clouds.13 mph36%29.93 "Hg16 mi
4:00 PM87 °FPleasantly warm.12 mph38%29.92 "HgN/A
3:00 PM87 °FPleasantly warm.12 mph38%29.93 "HgN/A
2:00 PM85 °FScattered clouds.12 mph46%29.96 "Hg16 mi
1:00 PM82 °FWarm.6 mph45%29.99 "HgN/A
12:00 PM79 °FWarm.2 mph48%30.02 "HgN/A
11:00 AM76 °FMild.2 mph56%30.06 "HgN/A
10:00 AM71 °FMild.1 mph63%30.09 "HgN/A
9:00 AM70 °FMild.5 mph67%30.09 "HgN/A
8:00 AM64 °FScattered clouds.2 mph83%30.12 "Hg16 mi
7:00 AM64 °FMild.2 mph85%30.11 "HgN/A
6:00 AM64 °FMild.No wind90%30.10 "HgN/A
5:00 AM65 °FPassing clouds.1 mph84%30.08 "Hg11 mi
4:00 AM67 °FMild.2 mph81%30.07 "HgN/A
3:00 AM66 °FMild.1 mph84%30.08 "HgN/A
2:00 AM68 °FClear.1 mph79%30.08 "Hg12 mi
1:00 AM69 °FMild.2 mph80%30.07 "HgN/A
12:00 AM70 °FMild.3 mph74%30.06 "HgN/A
11:00 PM
Sat, Aug 27
70 °FClear.1 mph80%30.07 "Hg12 mi
10:00 PM70 °FMild.1 mph81%30.05 "HgN/A
9:00 PM74 °FMild.1 mph66%30.02 "HgN/A
Weather by CustomWeather, © 2016

See weather overviewHow to use our weather pages